Location: Curupao
(10.4996°N, 66.6442°W)
Time: 00:58:48
(UTC+00:00)

Cosmos 1455 Rocket - Pass Details

Date: 23 May 2024
Orbit: 602 x 625 km, 82.5° (Epoch: 12 June)

Event Time Altitude Azimuth Distance (km) Brightness Sun altitude
Rises 09:16:41 0° 339° (NNW) 2,874 6.5 -11.5°
Reaches altitude 10° 09:19:05 10° 329° (NNW) 1,974 5.6 -11.0°
Maximum altitude 09:22:55 30° 268° (W) 1,108 3.9 -10.1°
Drops below altitude 10° 09:26:46 10° 206° (SSW) 1,985 5.2 -9.2°
Sets 09:29:13 0° 195° (SSW) 2,894 6.1 -8.7°
